GFSSW_700_rhum_336.txt.gz
RH
38 37 34 29 24 20 18 21 25 26 24 16 7 3 2 2 1 1 1 3 5 9 14 17 20 21 21 22 18 5 6 11 10 5 11 10 15 23 27 34 29 25 16 13 14
40 38 37 34 30 24 21 15 12 17 24 26 26 25 18 8 3 2 1 1 1 2 5 5 11 19 21 21 21 10 10 19 5 4 4 6 10 18 26 31 26 21 15 13 15
50 43 40 37 36 32 26 20 15 9 8 13 20 23 26 27 23 15 5 2 1 1 1 1 2 7 15 19 20 20 18 9 9 13 12 11 11 15 27 24 20 18 15 14 15
47 52 51 46 40 37 35 30 22 16 13 9 8 12 21 24 23 18 11 4 2 1 1 1 1 1 2 3 6 11 16 17 16 17 17 16 15 17 19 18 18 18 17 16 15
48 50 52 52 51 50 44 38 35 30 20 14 11 9 8 14 22 25 26 26 17 8 3 1 1 2 2 2 2 2 3 6 8 13 18 19 20 20 20 20 17 14 15 14 14
34 34 35 38 41 43 49 52 47 41 35 31 19 13 11 10 8 10 16 21 24 25 22 9 2 2 2 2 2 2 2 2 3 4 11 15 16 21 16 18 16 15 14 13 13
26 26 28 33 37 40 42 44 51 54 51 42 37 34 24 16 13 12 11 8 9 14 21 22 12 3 2 2 2 2 2 2 2 3 5 9 17 11 12 17 17 18 18 15 12
22 26 26 25 30 34 36 40 43 48 50 53 50 44 38 35 29 20 18 15 10 9 8 14 18 16 8 5 5 5 4 4 3 3 5 8 13 7 11 16 18 20 20 17 11
19 18 21 24 24 26 28 32 35 38 41 47 49 53 50 40 33 28 23 20 17 14 13 10 8 8 11 13 12 12 18 12 11 9 7 10 12 9 10 14 16 18 18 15 10
38 28 27 25 25 28 29 26 26 28 35 38 41 45 45 42 40 34 29 24 17 16 19 19 15 10 9 8 15 16 13 13 14 14 13 13 12 11 11 11 10 10 10 11 10
56 49 45 50 45 38 39 39 36 34 34 40 40 37 42 45 42 43 49 50 42 36 37 34 28 25 20 11 8 9 9 9 9 9 10 9 9 9 10 12 12 11 10 10 10
53 41 49 66 73 72 64 63 62 61 47 41 36 31 31 34 34 34 35 41 43 51 49 43 41 36 29 21 14 10 9 10 9 9 10 12 12 13 14 15 13 12 12 14 15
33 31 35 50 72 69 84 88 83 78 75 59 43 35 26 22 31 36 37 41 45 50 54 52 46 42 37 28 22 18 15 15 16 18 18 18 19 20 19 18 17 17 16 17 18
41 42 43 50 79 88 86 93 97 94 89 67 50 38 32 28 34 42 41 36 38 38 38 37 38 37 33 30 26 23 23 21 21 21 30 23 27 24 22 21 19 18 17 17 17
51 52 60 86 79 88 100 94 99 100 97 53 37 34 33 47 38 42 42 41 37 35 33 31 28 25 23 22 21 21 21 22 23 25 26 29 26 26 25 24 25 24 24 22 20
58 60 73 77 79 71 100 95 98 99 92 57 35 29 39 47 54 56 50 46 44 41 40 36 31 28 27 26 25 26 26 26 26 26 53 34 27 29 32 31 32 32 32 32 31
59 75 75 77 86 90 100 97 99 98 73 55 46 39 47 54 61 59 56 54 50 41 37 35 35 33 30 28 28 27 28 60 75 69 50 43 34 33 34 34 35 36 38 38 38
86 92 91 89 85 95 99 98 98 98 87 66 49 47 54 56 61 56 54 52 52 54 48 45 49 43 39 37 32 32 30 50 65 63 47 59 60 45 44 45 45 44 46 44 42
88 94 99 87 98 99 99 98 97 96 90 88 88 70 70 73 74 63 58 53 52 53 54 50 48 49 46 41 38 38 34 35 40 60 67 49 51 47 47 48 52 51 49 47 45
90 93 90 99 100 98 99 98 97 82 98 98 98 98 93 82 87 78 71 61 56 55 62 55 53 54 50 50 44 46 45 49 45 79 77 58 68 53 43 42 43 44 45 47 49
93 96 91 99 95 98 98 99 96 94 98 99 97 98 97 96 96 92 91 73 66 60 60 62 74 75 68 62 54 48 49 50 54 75 77 64 56 51 46 47 48 47 46 45 44
90 98 97 100 100 98 98 98 96 98 99 98 99 98 96 99 98 98 95 86 84 79 84 87 95 82 70 65 64 61 56 50 58 90 93 91 69 58 56 56 59 57 56 53 51
99 99 98 100 99 98 88 94 99 98 99 98 98 97 96 98 99 99 87 79 88 97 95 93 96 95 90 79 77 72 70 64 56 70 97 86 64 56 58 57 60 59 59 58 60
99 99 97 98 98 98 99 97 98 92 98 98 98 99 98 97 97 98 96 93 92 96 98 98 96 81 68 65 61 66 65 68 70 84 82 83 71 69 68 69 71 77 80 81 78
100 98 94 92 95 99 98 98 97 97 98 97 98 98 98 98 98 97 97 98 97 98 98 98 95 91 86 86 86 90 86 82 87 83 94 70 77 80 83 83 88 90 94 96 96
97 92 98 97 98 99 95 95 96 95 98 97 97 97 98 97 98 98 98 98 98 97 98 96 96 97 96 93 96 96 100 98 96 96 96 97 94 96 97 96 97 98 98 97 99
97 100 100 97 98 100 94 82 86 96 95 97 97 98 98 100 97 97 98 97 96 97 97 97 95 96 93 94 95 87 88 93 100 100 98 99 99 99 97 98 97 100 100 99 99

GFSSW_700_rhum_339.txt.gz
RH
38 37 36 35 33 30 25 20 14 12 20 26 26 26 21 8 3 2 1 1 2 5 11 16 18 21 22 23 22 10 15 11 13 12 14 27 17 24 25 27 28 33 30 27 22
47 46 41 38 36 35 33 29 23 18 10 10 17 22 26 26 24 13 4 2 1 1 2 7 12 19 22 22 23 18 17 15 14 14 17 18 9 12 20 24 29 34 34 26 18
43 48 49 49 46 41 38 35 33 28 21 16 10 9 15 23 24 24 21 13 4 1 1 2 2 4 15 21 22 23 23 23 19 16 8 7 7 6 25 29 33 36 32 26 18
37 38 40 42 44 49 49 47 41 36 33 28 18 14 10 9 16 20 19 13 6 3 2 1 2 2 3 8 16 19 20 21 20 14 13 16 15 11 14 25 24 30 28 23 20
24 28 31 34 38 40 41 44 49 50 45 38 34 28 18 12 10 9 17 24 26 24 9 3 2 2 2 2 2 3 10 9 14 16 18 18 18 17 17 16 19 21 21 21 19
22 26 27 26 26 28 30 30 32 36 43 50 48 40 35 28 20 13 10 9 17 23 25 22 10 2 2 2 2 3 2 2 3 5 8 14 16 19 16 18 20 21 21 17 18
17 13 12 16 23 23 24 27 30 34 36 36 43 49 48 38 33 29 20 13 11 8 14 21 22 14 4 2 2 2 3 2 3 3 3 7 10 10 9 14 18 20 21 16 13
22 26 27 20 16 18 21 23 24 24 27 32 33 35 38 44 45 40 35 29 20 15 10 8 16 19 9 6 4 3 3 7 6 2 3 5 10 8 4 8 14 17 20 18 18
26 26 30 39 31 28 29 25 23 26 25 23 25 31 31 30 41 40 32 28 24 20 16 12 8 11 13 12 10 8 13 14 15 9 6 6 11 12 12 10 11 14 18 19 20
30 32 36 43 39 34 34 40 43 39 36 32 32 34 38 40 41 45 45 40 26 18 16 15 14 11 9 10 17 18 21 18 21 20 15 12 11 12 12 11 11 12 15 18 20
34 34 35 37 32 34 37 50 55 64 55 57 50 49 38 29 34 34 41 44 49 53 43 33 24 22 18 14 11 14 16 17 15 16 14 13 13 13 12 13 12 11 11 12 12
32 36 38 37 35 34 39 56 62 72 52 45 45 44 45 41 38 30 34 38 40 40 47 51 43 32 32 27 25 17 12 14 14 12 10 10 10 10 16 10 10 10 10 11 11
29 32 38 46 47 44 54 72 84 86 85 54 46 45 45 49 48 44 34 37 39 45 45 49 45 46 40 35 28 26 18 18 21 22 19 17 18 20 20 18 19 16 15 14 13
28 33 40 54 53 59 67 73 80 100 97 70 71 62 47 43 47 42 39 37 40 42 44 48 44 49 44 36 27 22 26 18 19 21 30 30 32 30 26 25 24 21 19 18 18
32 43 50 57 61 65 74 81 76 91 100 64 61 51 41 34 36 34 37 38 36 34 36 39 32 29 33 32 29 29 32 26 24 25 31 32 30 25 24 24 24 23 20 18 17
50 61 73 70 75 78 81 93 89 99 91 72 61 48 39 35 42 45 42 43 38 37 33 32 33 31 27 25 23 24 24 26 27 34 58 36 31 28 29 28 28 27 25 22 21
61 80 90 88 92 95 93 98 99 98 78 72 58 52 51 42 45 52 57 50 48 42 42 38 37 35 32 30 28 27 28 73 80 76 50 37 39 32 34 33 32 31 31 29 31
60 66 80 83 87 92 99 99 98 94 94 91 81 80 76 51 52 58 64 62 58 56 52 46 48 38 35 32 31 30 30 54 63 54 43 55 54 41 35 32 34 34 34 35 37
56 57 65 69 84 100 99 99 96 99 89 97 94 97 90 84 70 74 68 61 55 53 53 53 50 50 43 38 36 42 39 40 52 48 57 44 46 43 45 45 44 42 41 43 45
63 68 67 75 91 100 97 98 98 96 99 98 98 98 98 96 97 97 95 80 72 63 56 64 65 58 48 47 38 43 44 46 42 77 81 49 47 53 48 42 45 45 50 51 50
77 84 71 80 100 99 99 98 98 81 84 97 98 100 98 98 98 98 97 84 78 68 63 77 78 77 59 50 46 41 46 49 80 94 90 71 59 63 53 46 46 45 46 46 46
83 94 91 100 100 97 89 100 98 82 94 99 98 99 98 99 98 99 94 87 92 95 95 81 71 81 69 71 65 59 60 60 79 95 95 83 73 64 58 55 52 49 49 50 50
80 89 100 88 91 98 94 86 98 91 93 99 98 98 98 98 98 99 98 90 98 98 96 90 96 96 90 84 82 69 63 57 54 89 96 84 64 59 60 60 60 58 59 58 56
85 100 99 98 92 88 90 85 86 74 79 87 95 96 99 98 97 98 97 98 98 98 98 98 98 88 70 62 64 71 71 70 63 94 81 84 68 72 81 85 76 70 70 74 74
91 99 100 98 97 98 98 98 76 100 95 93 93 84 100 98 98 98 98 98 98 98 98 97 95 97 86 87 87 85 71 72 80 77 93 76 92 96 98 99 97 96 96 96 95
90 100 100 97 94 96 96 86 73 74 98 96 98 90 97 96 98 97 98 97 96 96 97 96 96 97 96 99 97 97 97 96 96 97 96 97 98 96 96 96 96 98 97 97 96
80 99 99 98 94 100 98 87 89 91 95 87 96 98 96 100 98 96 96 97 97 96 97 98 96 96 94 96 96 96 96 96 97 97 96 96 96 96 97 97 97 96 97 98 99

GFSSW_700_rhum_342.txt.gz
RH
42 46 47 44 39 35 34 33 30 26 21 14 10 13 21 24 24 16 5 2 1 1 2 9 15 17 21 23 23 23 10 17 18 14 10 19 25 23 26 46 28 35 32 29 32
39 45 44 46 50 49 46 40 35 34 31 25 20 14 10 11 17 21 23 18 7 2 1 2 5 14 18 22 23 24 19 10 11 14 13 14 22 19 19 24 24 29 31 34 38
21 26 30 32 31 32 36 45 47 46 40 35 32 26 19 16 11 12 18 22 22 14 2 1 2 5 7 16 21 22 23 21 19 16 16 14 16 14 12 15 18 24 25 32 39
19 22 23 22 21 22 23 25 28 32 44 48 45 37 32 26 16 12 10 17 20 16 5 2 2 2 2 4 11 20 21 22 23 24 20 18 12 12 12 11 14 15 28 40 43
14 12 13 15 19 22 21 21 23 24 25 27 35 46 46 38 31 24 16 11 10 18 26 18 4 2 2 3 3 7 12 19 19 20 21 20 17 18 17 18 14 12 27 39 39
21 21 21 21 18 14 12 14 17 19 21 23 24 28 33 40 40 35 30 21 14 10 12 23 24 12 3 3 7 6 3 3 4 6 7 11 14 18 17 17 16 16 19 30 30
29 26 24 23 23 24 27 23 18 17 18 20 21 21 26 28 31 40 46 36 28 15 12 9 15 22 17 7 3 2 3 4 3 3 3 5 8 6 10 14 17 17 20 21 22
32 32 31 32 31 32 34 33 29 26 27 29 25 25 22 20 21 26 35 47 42 33 21 14 9 10 18 16 10 5 4 4 3 3 3 4 4 4 5 6 10 14 16 19 20
23 28 33 33 32 31 32 32 31 32 35 37 38 35 30 25 28 36 43 39 32 27 22 18 14 10 11 14 10 9 8 7 7 6 9 7 4 3 3 5 7 9 11 15 17
22 21 22 30 34 36 34 31 30 29 35 33 46 45 42 37 35 39 40 34 42 49 35 19 16 13 11 11 13 15 21 17 15 17 18 16 11 7 7 7 8 11 12 11 11
23 21 21 23 27 33 34 34 32 36 44 43 42 41 42 49 37 37 39 42 42 46 47 50 38 21 17 13 10 11 17 19 19 18 20 20 18 16 15 14 14 12 11 11 12
22 23 24 26 27 28 36 42 47 55 39 39 38 38 46 42 44 53 50 53 48 39 43 50 45 46 48 27 26 22 15 15 17 16 15 14 12 10 11 9 10 11 12 12 12
24 26 27 28 30 34 46 51 56 57 57 45 51 51 57 62 70 68 64 60 61 54 46 43 39 40 42 42 29 28 26 22 20 18 18 19 20 19 16 17 14 13 12 12 11
30 30 30 35 47 49 51 60 66 75 77 62 69 60 50 46 38 34 48 57 55 49 44 46 44 44 44 44 36 28 27 23 20 24 24 28 39 36 33 31 30 24 22 20 17
45 41 42 46 60 78 83 88 97 93 99 63 63 55 49 46 44 37 35 37 42 42 42 40 40 42 43 44 41 33 33 31 30 27 44 52 39 47 33 33 29 28 26 27 25
65 61 60 62 64 81 92 92 90 99 95 66 66 64 62 58 59 57 45 42 37 37 36 37 40 39 31 30 36 34 32 30 28 33 59 38 41 35 32 28 26 25 24 24 23
55 49 49 56 62 63 83 100 99 98 69 76 76 83 79 67 66 66 51 46 45 39 40 38 34 31 33 32 31 30 27 77 84 72 68 33 35 27 33 33 31 28 27 27 27
52 51 49 54 58 72 91 98 98 81 89 88 98 82 78 82 86 89 76 74 52 44 46 52 51 46 40 35 31 29 29 54 86 94 75 47 46 37 35 30 34 32 31 30 30
49 53 56 56 66 78 93 100 92 88 90 97 87 95 79 90 99 99 95 81 70 63 86 88 63 51 47 39 34 39 36 35 54 53 61 48 48 48 48 40 35 34 34 34 33
71 84 60 60 66 82 96 98 98 99 97 99 100 99 98 94 98 100 96 83 85 94 91 95 96 78 65 51 38 39 44 45 45 85 90 65 47 42 44 45 48 44 42 40 40
95 90 74 72 88 99 99 95 99 78 89 98 96 100 100 100 99 98 98 83 94 97 98 97 98 92 93 83 73 56 48 48 57 69 91 93 66 62 61 54 52 48 48 50 50
83 95 92 100 100 100 100 99 95 92 86 99 99 95 86 95 98 100 100 100 96 98 96 95 96 97 85 79 70 53 44 46 60 94 86 99 75 64 54 50 51 52 50 51 51
94 95 97 100 98 100 94 93 99 100 79 92 100 98 89 100 99 98 99 97 99 97 98 97 96 96 96 92 87 70 56 45 46 81 96 93 76 69 68 64 61 54 51 50 48
97 100 100 100 99 99 93 97 93 94 88 81 79 81 100 99 92 97 92 92 89 100 99 98 97 88 80 71 77 83 76 70 56 93 86 84 81 81 79 77 69 65 62 59 58
99 99 100 96 100 97 97 99 89 97 100 99 99 94 98 98 100 96 95 95 91 97 100 97 94 91 93 97 98 95 96 92 84 83 96 95 97 96 96 96 97 96 91 87 88
100 100 100 100 99 99 98 95 95 90 100 96 95 90 100 97 99 98 98 96 98 94 98 98 95 96 95 97 97 96 96 96 95 96 96 97 96 97 97 97 96 96 96 96 96
100 100 100 99 99 97 95 96 93 98 93 94 95 99 94 89 95 97 97 96 97 97 97 98 97 97 94 96 96 96 96 97 97 97 97 97 100 98 98 98 97 98 97 98 98

GFSSW_700_rhum_345.txt.gz
RH
19 30 31 32 34 39 42 41 41 36 33 30 28 24 17 12 11 13 18 23 13 3 1 2 6 14 16 22 24 24 23 18 9 6 6 10 15 20 29 29 27 24 26 30 37
15 15 18 18 18 19 22 25 28 34 41 41 37 32 29 24 19 13 11 14 21 22 14 3 2 4 14 17 20 24 24 22 20 11 14 16 14 17 23 30 24 20 24 28 38
12 12 12 12 14 16 18 18 19 20 21 24 26 36 39 33 28 18 14 13 17 18 16 15 4 1 2 10 15 21 19 20 22 18 12 16 33 32 24 22 20 13 14 24 33
22 21 19 17 14 12 12 12 15 17 19 20 20 21 22 27 36 32 30 18 12 14 22 20 6 2 1 2 4 10 18 21 23 22 17 20 21 18 17 14 11 8 14 33 41
30 30 30 28 25 22 21 21 19 15 12 13 15 17 20 19 21 29 39 32 22 13 9 15 25 14 4 2 2 2 3 10 22 23 23 26 25 22 18 16 11 12 10 23 32
26 26 26 27 31 32 32 30 29 28 29 25 22 20 20 16 18 22 25 37 44 36 18 10 14 22 20 8 3 2 2 3 7 17 21 21 24 24 21 18 16 15 15 19 29
23 22 20 19 20 23 28 29 30 31 31 30 29 28 25 23 23 21 21 26 31 46 39 25 13 11 17 18 13 8 5 5 4 3 5 5 7 9 11 11 15 18 17 18 22
19 17 16 16 17 17 19 22 30 31 28 26 24 24 26 29 31 27 24 27 35 42 42 38 27 14 10 13 16 15 11 7 6 3 2 3 2 2 3 4 7 13 17 18 21
17 17 16 16 17 18 21 24 24 26 28 30 31 32 34 36 38 34 31 36 44 44 42 37 23 19 13 11 12 14 16 15 13 10 6 5 3 2 3 3 4 6 9 16 18
14 16 18 22 23 24 28 32 32 35 36 36 41 42 38 41 38 37 40 42 41 42 50 40 46 25 16 13 13 12 14 13 15 16 14 11 10 8 6 5 4 5 8 12 12
17 22 31 37 31 32 35 40 38 40 45 42 42 42 38 42 40 41 47 53 58 62 64 58 52 48 45 32 19 14 14 20 20 22 20 18 17 19 20 18 14 10 11 12 14
27 37 46 48 44 40 41 47 51 60 52 52 43 38 48 52 58 57 63 71 73 73 76 70 57 44 44 48 41 30 16 14 16 18 20 24 21 20 20 17 14 14 14 15 16
39 54 59 59 58 55 56 60 66 73 73 45 50 54 46 49 48 41 39 38 54 68 71 70 60 54 43 44 49 46 33 30 27 23 20 19 17 16 15 15 16 13 11 15 15
63 67 68 67 62 61 61 64 73 82 63 46 58 60 56 55 48 54 55 56 51 44 50 55 51 51 49 45 43 44 38 32 31 30 26 25 30 27 30 33 33 29 24 20 16
66 65 66 64 57 51 56 65 66 92 98 51 64 62 64 61 66 64 61 60 60 50 44 43 42 44 43 44 44 42 39 35 30 28 27 31 38 45 41 45 46 42 39 33 27
66 65 59 52 51 54 60 69 99 79 93 68 75 69 67 68 64 53 63 71 69 59 48 42 39 41 41 41 42 39 37 34 34 35 54 37 45 48 51 40 39 40 34 30 29
48 43 43 45 49 56 59 76 87 96 59 76 76 74 62 62 68 61 72 78 79 60 67 66 47 37 36 38 36 37 36 65 65 61 60 31 45 29 35 29 26 26 27 26 27
27 28 33 39 52 71 86 99 98 71 80 78 80 72 83 73 73 83 88 80 73 88 58 84 77 60 46 34 35 38 38 53 71 88 66 49 49 31 32 31 30 32 31 28 26
28 42 50 55 67 83 88 100 92 93 95 87 76 90 78 78 88 100 91 68 74 82 82 91 90 76 69 65 69 69 48 46 53 89 71 54 46 42 44 39 35 34 35 32 31
61 94 87 70 73 81 96 100 96 96 91 98 100 96 99 92 98 99 98 83 94 99 98 92 98 94 92 85 59 65 57 49 48 96 95 70 59 49 52 54 44 39 39 38 37
100 99 95 80 83 99 97 87 94 89 97 96 96 99 96 97 99 99 98 86 98 97 100 96 98 93 98 87 82 70 73 59 76 95 95 96 81 91 84 72 66 50 45 46 46
100 100 100 100 100 100 98 94 93 90 97 98 99 96 96 96 97 100 98 99 100 100 100 98 97 96 85 90 96 96 82 77 95 95 95 97 99 80 83 91 83 73 58 55 52
99 99 95 98 100 99 94 98 90 99 96 98 98 100 99 99 99 97 99 87 87 98 98 97 97 96 95 95 96 99 84 67 84 97 96 91 98 95 74 72 87 96 97 96 80
100 100 99 100 99 99 97 92 100 91 89 90 91 100 100 98 98 97 96 100 95 95 97 98 97 94 87 94 96 96 94 84 68 90 91 97 97 97 96 87 79 73 73 76 84
100 99 99 99 99 98 98 93 92 100 99 100 97 88 97 97 98 96 92 98 99 95 94 99 97 95 92 97 97 96 97 96 97 95 96 98 97 98 97 98 97 97 95 94 92
100 97 97 99 99 98 98 98 99 92 98 97 97 91 98 96 98 97 97 94 97 96 99 98 96 96 96 96 97 95 96 96 97 97 97 98 97 98 99 99 98 98 98 98 97
90 97 98 83 81 95 96 89 84 99 88 93 88 100 96 97 96 98 97 98 97 98 97 98 96 96 95 100 97 96 100 99 100 100 100 99 100 100 100 99 99 99 99 99 99

GFSSW_700_rhum_351.txt.gz
RH
19 18 16 16 16 14 13 12 12 12 12 14 15 15 14 14 20 28 29 27 22 13 13 20 16 3 2 6 14 19 25 25 23 23 20 18 17 9 6 12 17 24 30 33 38
26 24 24 24 25 27 28 27 27 24 20 16 12 12 11 11 13 14 14 21 26 17 16 17 22 23 11 2 6 13 16 12 11 16 19 22 22 21 13 9 17 20 29 33 29
20 19 19 18 17 16 15 14 17 22 27 28 28 26 23 17 11 10 18 23 21 23 32 26 15 19 24 20 6 4 5 3 6 10 15 21 23 23 21 14 12 13 19 18 20
25 22 19 16 14 13 13 13 13 13 13 16 20 22 24 26 25 19 17 14 13 15 22 39 28 15 16 15 10 6 4 2 2 3 12 18 22 23 22 19 16 19 22 26 30
28 22 18 14 12 12 13 16 21 25 25 22 21 25 27 26 24 26 29 28 24 19 20 28 40 33 25 14 11 18 18 9 3 2 4 8 11 20 21 22 22 20 37 47 45
26 23 19 13 11 13 18 27 35 39 42 41 38 36 37 33 33 31 29 27 30 30 26 24 32 43 46 36 20 13 12 16 18 11 3 3 2 5 16 24 25 32 47 51 45
20 19 17 12 11 16 26 30 32 33 40 44 43 42 40 35 34 33 33 33 31 33 38 36 32 33 35 34 28 22 17 14 14 17 16 10 7 3 3 15 24 26 28 28 23
15 15 14 11 14 26 30 30 34 39 43 46 45 41 38 36 35 35 37 37 36 35 36 36 37 41 49 38 28 27 22 21 25 17 15 17 17 17 10 5 12 22 24 24 25
12 13 12 12 26 30 29 30 44 51 49 45 43 45 43 41 40 38 40 42 44 45 47 47 48 54 63 60 48 27 24 23 27 23 19 17 14 14 14 15 12 6 4 8 13
11 12 12 25 33 33 38 46 51 52 46 42 41 43 39 46 48 54 53 55 56 56 56 56 60 63 61 59 48 44 32 36 34 31 22 17 15 14 13 13 14 13 7 5 4
13 12 23 36 37 37 44 52 50 43 42 34 33 26 25 36 48 50 64 63 60 52 52 60 70 65 54 58 64 52 41 36 42 40 28 29 24 19 16 16 16 16 16 12 8
14 22 34 41 38 44 54 53 46 42 30 20 15 19 38 50 61 63 51 52 57 54 55 58 54 50 55 54 72 62 56 66 64 49 34 34 37 40 28 20 20 20 20 20 17
22 39 44 46 46 46 46 36 38 37 30 16 23 43 64 62 56 62 63 65 58 45 55 59 50 49 55 56 56 55 60 57 58 59 53 38 42 41 38 38 31 18 16 21 23
40 44 43 44 41 34 28 30 32 41 33 28 54 63 63 64 56 68 65 56 50 50 58 58 43 49 58 56 51 51 50 63 59 56 79 48 48 40 37 36 35 38 36 19 17
47 44 42 38 30 23 27 30 33 43 80 35 59 55 63 73 74 66 62 43 41 63 69 55 55 63 64 60 57 49 47 55 78 97 62 54 62 49 36 35 35 34 30 24 21
48 47 42 31 25 32 36 48 61 76 87 48 59 64 67 75 77 72 57 49 59 64 61 58 61 66 62 71 72 56 51 62 82 91 96 68 64 67 53 45 36 35 39 39 36
49 43 32 32 43 52 59 83 89 95 35 55 61 76 85 72 60 61 61 58 69 89 81 72 57 59 61 68 65 57 55 91 91 97 85 57 58 64 62 61 47 43 46 44 46
36 32 39 49 62 78 88 99 100 63 49 49 64 62 70 65 70 77 74 64 53 84 97 84 72 67 64 72 72 54 52 81 95 94 78 57 58 62 68 58 51 51 45 38 38
42 46 50 73 87 97 100 100 89 73 76 74 72 75 90 77 83 87 85 66 75 74 93 92 91 71 72 73 81 61 55 61 86 96 96 72 66 77 83 78 71 59 50 43 43
54 69 78 85 88 98 100 100 98 84 78 85 93 92 97 95 99 100 95 73 78 80 79 96 96 75 73 86 84 79 85 94 96 95 96 86 93 86 81 82 80 71 66 66 66
64 97 96 97 100 99 98 97 80 84 89 98 98 97 98 100 99 98 96 82 76 82 88 92 98 84 79 76 74 76 78 97 96 96 96 96 100 100 100 96 95 95 89 90 94
88 100 98 100 100 97 94 92 96 93 96 100 98 94 94 100 98 99 96 84 72 84 96 89 96 94 91 84 88 99 97 97 96 96 96 96 100 99 100 100 97 96 96 97 98
100 100 99 99 98 98 98 98 98 95 94 86 98 86 90 97 99 95 90 79 81 92 92 90 95 96 89 89 97 100 95 97 96 97 94 96 100 100 100 100 99 97 96 96 97
100 99 99 98 98 91 98 94 84 93 92 94 98 98 99 95 98 96 97 91 95 96 97 98 96 93 90 88 97 98 97 97 98 96 96 100 100 100 100 100 99 98 98 98 97
100 98 99 94 86 85 97 96 97 87 98 93 91 90 96 97 99 92 80 93 98 99 98 98 96 100 98 97 99 97 98 96 97 96 97 100 99 100 100 100 100 100 100 100 99
84 100 99 94 95 98 97 92 83 82 99 87 97 88 96 96 97 97 97 98 98 95 100 98 96 95 95 98 98 97 98 99 99 100 100 100 99 100 100 100 100 100 100 100 99
50 75 100 98 98 96 99 97 96 92 98 98 98 99 98 97 95 98 96 97 97 96 96 96 96 97 97 98 97 96 99 99 100 100 100 100 100 100 100 100 100 100 100 100 100

GFSSW_700_rhum_357.txt.gz
RH
21 20 18 17 16 14 14 12 12 12 12 13 14 16 17 18 18 22 24 21 13 11 12 13 20 26 14 15 20 8 11 16 13 7 6 8 13 15 17 20 19 18 12 7 8
30 27 24 21 19 17 16 13 11 12 14 17 22 26 31 31 30 26 24 22 24 23 14 18 24 26 29 21 18 17 15 12 11 8 6 6 7 6 12 13 15 16 22 19 8
34 32 29 24 17 14 12 12 11 10 10 16 22 23 23 21 21 25 26 24 20 18 20 23 23 20 21 28 26 21 20 19 19 19 19 15 13 9 6 5 6 12 19 23 22
28 28 28 26 21 15 12 12 10 10 12 16 21 22 22 24 30 28 32 34 32 30 28 26 28 27 23 25 26 22 20 20 18 16 14 13 13 11 8 6 3 4 12 19 23
9 14 16 17 16 13 10 11 11 10 13 18 21 21 21 24 26 37 33 35 36 36 35 32 33 33 30 31 32 33 30 28 24 22 22 19 16 13 14 16 12 4 3 10 18
10 3 3 4 6 7 8 10 11 11 14 17 19 19 17 22 31 39 40 38 39 39 39 38 39 40 41 40 36 31 30 31 34 36 36 34 29 29 20 17 14 15 11 3 7
26 14 6 4 4 5 7 9 11 12 15 18 19 20 19 27 35 40 42 44 45 44 42 42 41 45 43 42 41 39 37 34 31 28 27 26 24 23 24 24 22 17 15 16 8
57 52 39 18 9 8 8 9 11 14 18 19 21 22 25 29 34 35 39 44 49 48 47 48 51 52 50 51 48 47 49 50 41 41 38 38 31 31 32 30 26 25 21 18 15
60 60 58 51 39 32 20 13 15 20 24 26 27 27 29 33 33 37 40 44 47 52 55 54 50 49 51 56 56 61 56 54 52 50 50 47 38 42 39 37 37 35 22 17 16
70 51 46 42 36 29 26 27 29 32 33 33 32 34 32 32 30 33 38 48 54 56 51 50 55 59 62 59 62 59 59 58 56 54 53 51 48 50 50 52 51 46 39 29 16
72 68 45 34 29 29 32 34 36 36 39 40 38 34 31 27 28 31 36 43 51 58 61 64 74 73 55 60 61 62 63 60 56 54 58 52 48 54 54 53 58 62 56 43 34
81 74 59 43 39 43 46 47 42 45 43 45 36 30 28 27 26 34 36 42 46 55 67 83 84 57 55 55 57 56 56 55 56 54 55 54 48 49 52 55 54 51 56 54 43
84 77 64 55 53 53 53 47 45 44 49 38 34 30 28 34 55 65 65 72 70 70 66 63 56 48 44 52 57 55 57 53 57 58 56 53 49 54 61 57 56 54 55 58 50
78 78 68 62 61 61 60 52 45 49 52 39 40 45 51 60 68 71 69 65 66 62 57 55 45 38 42 52 52 54 49 57 60 59 59 64 69 58 63 57 56 59 52 46 46
74 71 70 72 59 54 62 51 57 67 86 38 38 41 41 52 54 57 67 72 73 73 66 57 51 48 49 43 53 60 62 63 58 55 64 77 80 71 68 58 52 53 53 50 48
72 72 65 48 35 46 50 68 90 97 92 39 40 40 45 51 63 74 78 84 78 68 57 52 48 53 48 49 61 70 69 67 60 72 93 71 76 84 74 73 71 73 66 60 59
58 53 40 36 43 57 78 99 98 96 48 43 43 48 60 61 65 75 81 74 66 65 63 60 54 55 56 66 69 74 63 85 90 98 86 69 80 96 94 95 88 74 71 68 71
31 31 42 40 50 82 100 100 98 74 68 47 53 63 69 71 69 67 63 59 56 74 81 81 74 59 62 69 66 68 67 76 93 94 76 69 86 97 96 94 96 96 89 84 91
35 38 40 45 54 88 100 98 94 85 78 77 79 85 85 82 81 80 78 69 66 69 79 78 87 69 67 69 72 70 69 70 77 93 97 87 99 100 100 100 100 99 98 94 95
36 34 33 42 67 91 100 98 98 97 99 94 96 98 95 90 93 93 85 75 66 59 75 85 94 78 74 72 80 82 76 88 95 96 97 91 100 100 100 99 96 95 95 95 96
34 37 39 50 82 100 98 98 98 99 98 99 97 97 97 96 98 97 94 81 79 71 81 96 96 89 88 86 72 78 94 94 96 95 95 94 99 100 98 97 97 96 96 96 96
38 47 56 99 100 99 95 93 94 90 92 97 97 96 100 96 100 98 97 87 82 91 91 79 97 96 88 84 79 80 85 92 95 93 97 96 100 100 100 100 100 100 99 98 98
30 33 41 93 99 96 84 89 100 98 96 100 99 99 96 97 99 98 96 81 96 96 95 90 97 96 96 97 99 98 96 97 96 96 96 96 100 100 100 100 100 100 100 100 99
2 12 25 51 87 98 97 96 90 88 96 96 97 95 96 97 98 96 92 80 80 99 97 96 96 94 91 74 84 96 99 98 96 96 96 100 100 100 100 100 100 100 99 98 97
1 4 37 59 88 99 99 99 94 93 80 77 85 96 94 96 88 96 97 97 96 97 97 97 97 97 100 98 96 97 98 96 97 97 97 100 100 100 100 100 100 98 97 97 97
2 2 5 9 15 20 26 48 58 69 82 83 85 74 83 96 94 88 88 95 95 96 96 98 97 99 97 98 97 95 98 98 98 99 98 100 100 100 100 100 100 100 100 98 96
7 6 6 10 18 31 55 79 78 87 90 100 98 98 99 99 99 92 89 93 94 96 93 94 96 96 100 98 97 93 99 100 99 100 100 100 100 100 100 100 100 100 98 93 90

GFSSW_700_rhum_360.txt.gz
RH
33 33 32 31 28 23 19 16 15 14 12 11 11 14 20 22 22 22 25 28 27 24 24 23 13 14 29 29 20 18 15 22 22 23 14 7 6 8 6 11 12 17 19 18 13
28 28 29 29 28 26 22 17 14 12 12 10 10 10 13 15 16 15 17 18 22 25 24 25 22 20 26 23 17 17 24 25 25 18 15 13 13 11 10 9 5 7 11 17 21
11 9 8 12 16 18 18 16 12 11 12 12 11 12 16 18 20 19 23 26 28 29 28 22 23 24 28 26 25 24 23 24 22 20 20 19 18 18 17 17 14 8 5 9 16
45 40 35 21 10 4 4 5 7 8 9 11 12 13 16 18 23 21 23 27 34 40 35 31 28 28 27 27 27 24 23 23 23 22 20 20 19 16 16 14 13 12 6 4 10
52 49 46 41 32 24 14 6 4 5 7 9 12 13 16 19 20 24 27 30 38 43 39 39 39 38 36 34 34 33 31 30 29 30 29 27 26 25 26 24 20 14 15 11 4
59 58 55 52 51 49 42 28 15 8 7 9 10 13 16 19 25 26 25 27 39 47 47 44 42 41 41 40 39 36 34 34 32 30 30 28 25 31 26 22 24 27 23 15 16
65 60 58 54 53 49 48 48 45 35 24 13 13 14 17 22 26 26 26 30 38 47 53 54 50 50 49 48 47 45 43 42 39 37 36 34 34 31 29 26 25 24 22 20 17
65 65 68 66 60 57 52 48 43 40 34 33 30 29 30 30 28 28 32 38 45 51 56 57 57 58 57 54 51 48 48 52 48 42 41 42 37 36 35 38 30 24 25 22 20
72 67 71 68 62 61 60 53 48 40 38 38 37 36 32 31 32 35 36 39 46 53 57 62 65 61 61 63 64 62 52 49 53 52 50 46 42 45 39 32 30 28 34 35 22
80 73 79 79 66 65 64 59 53 48 46 43 40 39 37 39 41 43 44 42 48 55 58 58 58 62 70 68 59 51 53 53 55 52 52 50 46 45 46 50 47 47 49 47 40
96 84 78 77 68 58 62 54 50 47 51 52 43 40 38 39 43 44 47 56 58 60 62 63 61 62 64 52 62 70 68 64 59 57 58 54 53 52 52 51 52 50 48 46 52
86 85 90 81 73 65 62 62 55 56 45 50 39 33 34 37 33 34 39 48 59 55 75 77 75 71 72 73 73 72 65 61 57 49 52 54 58 58 51 49 47 47 46 43 46
94 92 86 78 64 63 56 45 41 49 52 34 33 35 34 33 34 36 48 58 63 77 82 82 71 60 73 74 62 53 59 58 57 60 59 59 52 56 58 60 58 51 50 49 47
92 86 81 65 61 51 37 38 40 58 53 36 41 41 42 45 52 59 66 61 66 70 69 78 68 64 60 55 52 61 46 51 59 63 56 59 42 66 66 64 62 67 68 64 61
74 74 58 42 33 33 37 41 61 91 96 37 41 42 40 48 51 65 72 74 64 70 71 70 62 55 52 47 46 52 58 58 62 60 63 71 69 74 76 72 71 69 67 65 60
62 51 38 34 34 46 45 60 93 96 88 40 43 40 44 47 56 68 71 75 78 81 84 78 71 64 58 54 55 61 64 63 64 80 87 72 68 94 76 75 76 80 76 69 67
37 33 38 36 43 46 60 92 99 95 57 52 44 43 50 58 62 66 65 78 88 88 74 69 64 59 58 61 63 68 71 84 91 95 69 69 77 100 99 95 85 80 76 73 74
32 33 36 35 43 53 74 100 98 78 80 66 66 72 71 73 66 78 86 80 71 78 82 73 64 59 59 65 61 63 73 70 72 72 54 74 77 100 100 100 95 86 80 79 81
26 26 26 29 37 54 99 100 96 81 79 82 92 88 93 89 84 92 82 76 73 64 78 76 82 66 66 70 75 78 75 74 76 83 82 79 100 100 100 100 99 96 92 93 93
21 22 24 29 50 80 100 97 96 97 92 94 98 90 97 95 98 98 95 75 68 64 61 94 95 82 73 71 69 70 70 79 84 85 77 76 93 98 100 100 98 97 97 97 96
10 4 7 18 50 62 99 96 88 78 97 100 98 99 92 99 95 99 95 85 83 80 78 91 96 90 87 88 82 78 93 83 90 94 72 66 94 100 100 99 97 97 97 96 96
1 1 2 7 36 85 96 86 98 91 86 96 97 92 94 96 95 99 98 85 79 80 83 88 97 97 93 82 78 86 94 91 95 92 91 79 99 100 99 97 97 97 97 97 95
1 1 5 16 83 85 95 97 94 89 81 81 91 90 89 96 89 76 88 98 98 98 94 89 96 96 95 97 97 96 90 87 93 94 96 91 100 100 100 100 100 99 98 98 97
2 2 6 31 86 91 62 31 20 27 25 53 63 65 82 68 52 77 71 87 93 96 97 97 98 96 84 90 94 95 99 99 98 98 96 100 100 100 100 100 100 99 99 98 98
2 3 4 10 8 9 22 33 52 54 69 74 85 97 100 99 92 74 70 57 73 95 95 96 97 97 98 99 98 99 97 96 97 97 97 100 100 100 100 100 100 100 97 95 93
3 6 9 19 32 44 45 42 46 38 62 94 95 96 90 100 98 100 94 92 89 78 94 96 97 94 100 99 97 99 99 98 98 100 98 99 100 100 100 100 100 98 92 87 84
4 6 13 20 11 7 9 12 18 15 63 100 100 100 100 96 95 97 98 97 98 90 93 96 94 96 100 97 96 94 100 100 99 100 100 99 99 99 100 100 99 92 88 84 79